Regional Weather Roundup
Issued by NWS

Home | Current Version | Previous Version | Text Only | Print | Product List | Glossary Off
Versions: 1 2 3 4 5 6 7 8 9 10 11 12 13 14 15 16 17 18 19 20 21 22 23 24 25 26 27 28 29 30 31 32 33 34 35 36 37 38 39 40 41 42 43 44 45 46 47 48 49 50

824
ASUS43 KIND 242309
RWRIN

WEATHER ROUNDUP FOR INDIANA
NATIONAL WEATHER SERVICE INDIANAPOLIS IN
700 PM EDT MON APR 24 2017

NOTE: "FAIR" INDICATES FEW OR NO CLOUDS BELOW 12,000 FEET WITH NO
SIGNIFICANT WEATHER AND/OR OBSTRUCTIONS TO VISIBILITY.

* - STATION DOES NOT REPORT WEATHER SUCH AS PRECIPITATION OR FOG.

+ - STATION NOT QUALITY CONTROLLED BY THE NATIONAL WEATHER SERVICE.
    USE DATA WITH CAUTION...ESPECIALLY DEWPOINT AND RELATIVE
    HUMIDITY OBSERVATIONS.

INZ001>003-010>013-019-020-250000-
NORTHWEST INDIANA

CITY           SKY/WX    TMP DP  RH WIND       PRES   REMARKS
GARY /AIRPORT/ PTSUNNY   61  36  39 NE6       29.82F
KNOX *+        SUNNY    N/A N/A N/A E16       29.82S
LA PORTE +     SUNNY     72  33  24 SE14      29.83F
MICHIGAN CITY+ SUNNY     72  32  23 SE9       29.82F
MONTICELLO +   SUNNY     73  32  22 SE12      29.80F
RENSSELAER +   SUNNY     73  28  19 E14       29.81S
VALPARAISO     SUNNY     73  31  21 E14       29.82F

$$

LMZ046-743>745-250000-
SOUTHERN LAKE MICHIGAN

STATION/POSITION TIME  TEMP    WIND        PRES    WAVE
                       AIR SEA DIR/SP/G            HT
                 (UTC) (F)     (DEG/KT/KT) (MB)    (FT)
BURNS HARBOR     2240   58      50/  5/  8 1010.2F
MICHIGAN CITY    2240   72     120/ 13/ 16   N/A

$$

INZ004-005-014>016-021>024-250000-
NORTH CENTRAL INDIANA

CITY           SKY/WX    TMP DP  RH WIND       PRES   REMARKS
ELKHART        SUNNY     70  30  23 E12       29.84F
GOSHEN         CLOUDY    68  34  28 E13       29.84F
LOGANSPORT +   SUNNY     70  36  28 E14       29.81F
PERU/GRISSOM   SUNNY     72  37  28 E14       29.79F
ROCHESTER +    SUNNY     72  32  23 E15G21    29.83F
SOUTH BEND     SUNNY     70  34  26 E12       29.84F
WARSAW +       SUNNY     68  37  32 E13       29.84F

$$

INZ006>009-017-018-025>027-250000-
NORTHEAST INDIANA

CITY           SKY/WX    TMP DP  RH WIND       PRES   REMARKS
ANGOLA *+      SUNNY     66  36  32 E12       29.87F
AUBURN +       SUNNY     66  36  32 E10G18    29.87F
FORT WAYNE     MOSUNNY   68  39  34 NE17      29.84F
HUNTINGTON +   SUNNY     69  37  31 E12       29.83S
KENDALLVILLE + CLOUDY    66  36  32 E13G18    29.87F

$$

INZ028-029-035-036-043>045-051>053-250000-
WEST CENTRAL INDIANA

CITY           SKY/WX    TMP DP  RH WIND       PRES   REMARKS
CRAWFORDSVL +  SUNNY     72  40  31 NE10      29.78F
GREENCASTLE +  SUNNY     73  41  31 E13G18    29.78F
LAFAYETTE      SUNNY     70  38  31 E12       29.78F
TERRE HAUTE    SUNNY     74  41  30 E10       29.76F

$$

INZ030>032-037>040-046>048-054>057-064-065-250000-
CENTRAL INDIANA

CITY           SKY/WX    TMP DP  RH WIND       PRES   REMARKS
CP ATTERBURY + MOSUNNY   73  50  43 E13       29.77F
COLUMBUS       PTSUNNY   73  43  33 E12       29.77F
FISHERS *+     CLOUDY    73  45  35 NE6       29.78
FRANKFORT +    SUNNY     77  36  22 E14       29.81F
GREENWOOD *+   SUNNY     75  43  32 E9G17     29.78F
INDIANAPOLIS   MOSUNNY   75  44  33 E13       29.77F
-EAGLE CREEK   SUNNY     74  41  30 E13       29.77F
KOKOMO +       SUNNY     72  37  28 E14G22    29.81F
MARION +       CLOUDY    72  36  26 E10       29.81F
MT COMFORT *+  CLOUDY    73  45  35 E15       29.78F
SHELBYVILLE    SUNNY     78  45  30 E17       29.77F
ZIONSVILLE +   SUNNY     73  38  28 E10       29.79F

$$

INZ033-034-041-042-049-050-058-059-250000-
EAST CENTRAL INDIANA

CITY           SKY/WX    TMP DP  RH WIND       PRES   REMARKS
MUNCIE         CLOUDY    76  32  20 NE15      29.80F
RICHMOND +     CLOUDY    68  50  52 E18       29.82S

$$

INZ060-061-067>069-081>083-085>088-250000-
SOUTHWEST INDIANA

CITY           SKY/WX    TMP DP  RH WIND       PRES   REMARKS
EVANSVILLE     SUNNY     78  47  33 VRB3      29.75F
HUNTINGBURG *+ SUNNY     74  48  39 NE7       29.74F
WASHINGTON +   SUNNY    N/A N/A N/A MISG      29.74F

$$

INZ062-063-066-070>080-084-089>092-250000-
SOUTH CENTRAL AND SOUTHEAST INDIANA

CITY           SKY/WX    TMP DP  RH WIND       PRES   REMARKS
BLOOMINGTON    SUNNY     75  46  35 E8        29.76F
MADISON *+     PTSUNNY   70  48  46 E8        29.80S
NORTH VERNON + MOSUNNY   73  48  40 E7        29.78
SEYMOUR +      CLOUDY    75  52  43 E8        29.76F

$$





USA.gov is the U.S. government's official web portal to all federal, state and local government web resources and services.